Find Kosmos-1554

NORAD ID: 14977 Int'l Des: 1984-047 Owner: GUKOS Country: SU Constellation: GLONASS operational
MEOCIRCULAR

Current View

Loading 3D Globe...

About Kosmos-1554

Kosmos-1554 (NORAD 14977) is a GLONASS constellation satellite launched May 19, 1984 by GUKOS of SU. It operates in MEO, CIRCULAR orbit with a mass of 1300.00 kg.

About Kosmos-1554

Description loading...

Upcoming Passes

Passes for default location (London). Set your location on the main map for personalized predictions.

Altitude History

Loading altitude history...

Two-Line Element Set

1 14977U 84047A 26194.54003078 -.00000072 00000-0 00000-0 0 9990
2 14977 66.3576 327.2821 0018225 211.9503 324.9873 2.13100203104448
Epoch: Jul 13, 2026 • Age: 14 hours

Current Status

Altitude 19125.2 km
Apogee / Perigee N/A
Velocity 3.96 km/s
Sub-Earth Point -65.46°S, 115.32°W
Launch Date May 19, 1984
Age 42.1 years
Type other

Technical Details

Classification Payload
Mass 1300.00 kg
Dry Mass 1200.00 kg
Total Mass 1300.00 kg
Length 4.00 m
Diameter 1.50 m
Span 7.80 m
Shape Cyl + Ant + 2 Pan
Manufacturer OAZ
Bus Type Uragan
Phase Status In Orbit
Owner/State GUKOS/SU

Most Searched